TimeCDT,TemperatureF,Dew PointF,Humidity,Sea Level PressureIn,VisibilityMPH,Wind Direction,Wind SpeedMPH,Gust SpeedMPH,PrecipitationIn,Events,Conditions,WindDirDegrees,DateUTC
12:15 AM,60.8,51.8,72,30.12,10.0,Calm,Calm,-,N/A,,Clear,0,2013-07-13 05:15:00
12:35 AM,59.0,51.8,77,30.12,10.0,Calm,Calm,-,N/A,,Clear,0,2013-07-13 05:35:00
12:55 AM,59.0,51.8,77,30.12,10.0,Calm,Calm,-,N/A,,Clear,0,2013-07-13 05:55:00
1:15 AM,60.8,51.8,72,30.12,10.0,Calm,Calm,-,N/A,,Clear,0,2013-07-13 06:15:00
1:35 AM,59.0,51.8,77,30.13,10.0,Calm,Calm,-,N/A,,Clear,0,2013-07-13 06:35:00
1:55 AM,59.0,51.8,77,30.14,10.0,Calm,Calm,-,N/A,,Clear,0,2013-07-13 06:55:00
2:15 AM,59.0,51.8,77,30.14,10.0,Calm,Calm,-,N/A,,Clear,0,2013-07-13 07:15:00
2:35 AM,59.0,53.6,82,30.15,10.0,Calm,Calm,-,N/A,,Clear,0,2013-07-13 07:35:00
2:55 AM,57.2,51.8,82,30.15,10.0,Calm,Calm,-,N/A,,Clear,0,2013-07-13 07:55:00
3:15 AM,57.2,51.8,82,30.15,10.0,Calm,Calm,-,N/A,,Clear,0,2013-07-13 08:15:00
3:35 AM,59.0,51.8,77,30.14,10.0,Calm,Calm,-,N/A,,Clear,0,2013-07-13 08:35:00
3:55 AM,57.2,51.8,82,30.15,10.0,Calm,Calm,-,N/A,,Clear,0,2013-07-13 08:55:00
4:15 AM,59.0,51.8,77,30.15,10.0,Calm,Calm,-,N/A,,Clear,0,2013-07-13 09:15:00
4:35 AM,57.2,51.8,82,30.15,10.0,Calm,Calm,-,N/A,,Clear,0,2013-07-13 09:35:00
4:55 AM,55.4,51.8,88,30.15,10.0,Calm,Calm,-,N/A,,Clear,0,2013-07-13 09:55:00
5:15 AM,55.4,51.8,88,30.14,10.0,Calm,Calm,-,N/A,,Clear,0,2013-07-13 10:15:00
5:35 AM,57.2,51.8,82,30.14,10.0,Calm,Calm,-,N/A,,Clear,0,2013-07-13 10:35:00
5:55 AM,55.4,51.8,88,30.16,10.0,Calm,Calm,-,N/A,,Clear,0,2013-07-13 10:55:00
6:15 AM,57.2,51.8,82,30.17,10.0,Calm,Calm,-,N/A,,Clear,0,2013-07-13 11:15:00
6:35 AM,59.0,53.6,82,30.16,10.0,Calm,Calm,-,N/A,,Clear,0,2013-07-13 11:35:00
6:45 AM,60.8,53.6,77,30.16,10.0,Calm,Calm,-,N/A,,Clear,0,2013-07-13 11:45:00
6:55 AM,60.8,53.6,77,30.18,10.0,Calm,Calm,-,N/A,,Clear,0,2013-07-13 11:55:00
7:45 AM,68.0,60.8,78,30.18,10.0,Calm,Calm,-,N/A,,Clear,0,2013-07-13 12:45:00
8:45 AM,73.4,57.2,57,30.18,10.0,South,8.1,-,N/A,,Clear,170,2013-07-13 13:45:00
9:45 AM,77.0,55.4,47,30.18,10.0,South,8.1,-,N/A,,Clear,170,2013-07-13 14:45:00
10:45 AM,78.8,53.6,42,30.18,10.0,SSE,6.9,-,N/A,,Clear,160,2013-07-13 15:45:00
11:45 AM,78.8,53.6,42,30.19,10.0,South,3.5,-,N/A,,Clear,180,2013-07-13 16:45:00
12:45 PM,80.6,53.6,39,30.18,10.0,SE,5.8,-,N/A,,Clear,140,2013-07-13 17:45:00
1:45 PM,80.6,53.6,39,30.17,10.0,SE,10.4,18.4,N/A,,Clear,140,2013-07-13 18:45:00
2:45 PM,80.6,53.6,39,30.18,10.0,ESE,11.5,19.6,N/A,,Clear,120,2013-07-13 19:45:00
3:45 PM,80.6,51.8,37,30.17,10.0,ESE,5.8,-,N/A,,Clear,110,2013-07-13 20:45:00
4:45 PM,80.6,51.8,37,30.17,10.0,SE,10.4,-,N/A,,Clear,140,2013-07-13 21:45:00
5:45 PM,80.6,48.2,32,30.17,10.0,ESE,6.9,-,N/A,,Clear,120,2013-07-13 22:45:00
6:45 PM,78.8,48.2,34,30.15,10.0,SE,6.9,-,N/A,,Clear,130,2013-07-13 23:45:00
7:45 PM,77.0,55.4,47,30.15,10.0,East,4.6,-,N/A,,Clear,100,2013-07-14 00:45:00
8:45 PM,73.4,57.2,57,30.16,10.0,East,4.6,-,N/A,,Clear,80,2013-07-14 01:45:00
9:15 PM,71.6,57.2,60,30.18,10.0,East,3.5,-,N/A,,Clear,90,2013-07-14 02:15:00
9:35 PM,71.6,59.0,64,30.18,10.0,ENE,3.5,-,N/A,,Clear,70,2013-07-14 02:35:00
9:55 PM,69.8,59.0,68,30.19,10.0,East,3.5,-,N/A,,Clear,90,2013-07-14 02:55:00
10:15 PM,69.8,59.0,68,30.19,10.0,East,3.5,-,N/A,,Clear,100,2013-07-14 03:15:00
10:35 PM,69.8,60.8,73,30.19,10.0,Calm,Calm,-,N/A,,Clear,0,2013-07-14 03:35:00
10:55 PM,69.8,60.8,73,30.18,10.0,East,3.5,-,N/A,,Clear,100,2013-07-14 03:55:00
11:15 PM,69.8,62.6,78,30.19,10.0,ESE,3.5,-,N/A,,Clear,110,2013-07-14 04:15:00
11:35 PM,69.8,62.6,78,30.19,10.0,ESE,4.6,-,N/A,,Clear,120,2013-07-14 04:35:00
11:55 PM,69.8,60.8,73,30.19,10.0,East,4.6,-,N/A,,Clear,100,2013-07-14 04:55:00